Track COSMOS 2503 now! 10-day predictions COSMOS 2503 is classified as:
1 40420U 15009A 24326.14939262 .00002561 00000-0 19107-3 0 9993 2 40420 97.9129 0.4593 0018152 33.3550 326.8814 15.03678029532739